Location: Newark
(43.4306°N, 0.3089°E)
Time: 20:36:13
(UTC+00:00)

Transit 2A Rocket - Pass Details

Date: 26 August 2019
Orbit: 593 x 910 km, 66.7° (Epoch: 14 October)

Event Time Altitude Azimuth Distance (km) Brightness Sun altitude
Rises 03:53:36 0° 320° (NW) 2,972 8.0 -14.5°
Reaches altitude 10° 03:56:07 10° 311° (NW) 2,017 7.0 -14.1°
Maximum altitude 04:00:08 33° 248° (WSW) 1,037 5.2 -13.5°
Drops below altitude 10° 04:03:59 10° 184° (S) 1,925 6.8 -12.9°
Sets 04:06:20 0° 175° (S) 2,815 7.7 -12.5°
